This is the latest recevied weather packets stored in our database for station/object XE2B-20. If no packets are shown the sender has not sent any weather packets the latest 10 day(s).
| Time | Temp. | Humidity | Pressure | Rain* | Wind** | Luminosity | Snow |
|---|---|---|---|---|---|---|---|
| 1777997636 | 33.33° C | 14% | 807.2 hPa | - | - | - | - |
| 1777996137 | 31.67° C | 14% | 807.4 hPa | - | - | - | - |
| 1777993145 | 29.44° C | 16% | 807.4 hPa | - | - | - | - |
| 1777991640 | 27.78° C | 16% | 807.3 hPa | - | - | - | - |
| 1777988643 | 22.78° C | 18% | 807 hPa | - | - | - | - |
| 1777987143 | 18.89° C | 20% | 806.9 hPa | - | - | - | - |
| 1777985645 | 16.67° C | 22% | 806.7 hPa | - | - | - | - |
| 1777984147 | 16.11° C | 23% | 806.4 hPa | - | - | - | - |
| 1777982649 | 17.22° C | 23% | 806 hPa | - | - | - | - |
| 1777981149 | 17.78° C | 22% | 805.6 hPa | - | - | - | - |
| 1777979650 | 17.22° C | 22% | 805.3 hPa | - | - | - | - |
| 1777978151 | 17.78° C | 22% | 805.2 hPa | - | - | - | - |
| 1777976652 | 18.33° C | 21% | 805.1 hPa | - | - | - | - |
| 1777975153 | 18.89° C | 21% | 805 hPa | - | - | - | - |
| 1777973653 | 18.89° C | 21% | 804.8 hPa | - | - | - | - |
| 1777972154 | 19.44° C | 20% | 804.7 hPa | - | - | - | - |
| 1777970655 | 19.44° C | 20% | 804.9 hPa | - | - | - | - |
| 1777969156 | 19.44° C | 20% | 804.9 hPa | - | - | - | - |
| 1777967657 | 20° C | 19% | 805 hPa | - | - | - | - |
| 1777966158 | 20.56° C | 19% | 805.1 hPa | - | - | - | - |
| 1777964660 | 21.11° C | 18% | 805.3 hPa | - | - | - | - |
| 1777963160 | 21.11° C | 18% | 805.3 hPa | - | - | - | - |
| 1777961661 | 21.67° C | 18% | 805.2 hPa | - | - | - | - |
| 1777960162 | 21.67° C | 18% | 805.4 hPa | - | - | - | - |
| 1777958663 | 22.22° C | 17% | 805.5 hPa | - | - | - | - |
* Rain since midnight (hover to see other rain measurements)
** Current wind speed in m/s (hover to see current wind gust speed)